Location: Rowland
(34.5359°N, 79.2929°W)
Time: 16:01:20
(UTC+00:00)

A-11 Canister half - Pass Details

Date: 05 October 2022
Orbit: 1515 x 1684 km, 47.2° (Epoch: 06 December)

Event Time Altitude Azimuth Distance (km) Brightness Sun altitude
Exits shadow 09:17:18 36° 227° (SW) 2,229 9.4 -24.9°
Drops below altitude 10° 09:25:15 10° 168° (SSE) 3,681 11.0 -23.3°
Sets 09:28:37 0° 159° (SSE) 4,675 11.7 -22.6°
